Flag for U.S.A. Weather past 2 weeks in Downey, California, U.S.A.

Now
79 °F

Passing clouds.


Feels Like: 80 °F
Forecast: 62 / 79 °F
Wind: 8 mph from West

Location: Long Beach Airport

Current Time: Oct 25, 2014 at 1:58:49 PM

Latest Report: Oct 25, 2014 at 12:53 PM


Visibility: 10 mi

Pressure: 30.03 "Hg

Humidity: 50%

Dew point: 59 °F

Location of DowneyLocation

Historic Weather in Downey — Graph

°F

Downey temperature yesterday

Maximum temperature yesterday: 84 °F (at 1:53 PM)
Minimum temperature yesterday: 60 °F (at 4:01 AM)
Average temperature yesterday: 71 °F

Past Weeks' High & Low Weather Summary

 TemperatureHumidityPressure
High84 °F (Oct 24, 1:53 PM)94% (Oct 25, 4:53 AM)30.05 "Hg (Oct 25, 4:53 AM)
Low59 °F (Oct 22, 6:53 AM)22% (Oct 24, 3:53 PM)29.83 "Hg (Oct 18, 4:53 PM)
Average70 °F73%29.93 "Hg
* Reported Oct 10 12:53 PM — Oct 25 12:53 PM, Downey, Weather by CustomWeather, © 2014

Note: Actual official high and low records may vary slightly from our data, if they occured in-between our weather recording intervals... More about our weather records

Advertising

Downey weather history for previous 24 hours

 ConditionsComfort  
Time TempWeatherWind HumidityBarometerVisibility
12:53 PM
Oct 25
79 °FPassing clouds.8 mph50%30.03 "Hg10 mi
11:53 AM79 °FPassing clouds.6 mph45%30.04 "Hg10 mi
10:53 AM74 °FSunny.6 mph67%30.05 "Hg10 mi
9:53 AM73 °FScattered clouds.No wind66%30.05 "Hg10 mi
8:53 AM70 °FSunny.5 mph76%30.04 "Hg10 mi
7:53 AM66 °FOvercast.3 mph87%30.02 "Hg7 mi
7:00 AM66 °FLow clouds.3 mph90%30.01 "Hg8 mi
5:53 AM65 °FOvercast.5 mph91%29.98 "Hg8 mi
4:53 AM64 °FOvercast.5 mph94%29.97 "Hg9 mi
3:53 AM65 °FPassing clouds.5 mph91%29.98 "Hg9 mi
2:53 AM65 °FClear.3 mph91%29.98 "Hg8 mi
1:53 AM65 °FClear.6 mph91%30.01 "Hg10 mi
12:53 AM67 °FClear.No wind81%30.01 "Hg10 mi
11:53 PM
Oct 24
66 °FClear.6 mph73%30.00 "Hg10 mi
10:53 PM69 °FClear.No wind70%29.99 "Hg10 mi
9:53 PM70 °FClear.3 mph66%29.98 "Hg10 mi
8:53 PM70 °FClear.6 mph64%29.96 "Hg10 mi
7:53 PM73 °FClear.No wind59%29.94 "Hg10 mi
6:53 PM74 °FSunny.No wind56%29.93 "Hg10 mi
5:53 PM78 °FSunny.6 mph31%29.91 "Hg10 mi
4:53 PM80 °FSunny.6 mph32%29.92 "Hg10 mi
3:53 PM83 °FSunny.6 mph22%29.92 "Hg10 mi
2:53 PM81 °FSunny.8 mph34%29.92 "Hg10 mi
1:53 PM84 °FSunny.6 mph27%29.93 "Hg10 mi
Weather by CustomWeather, © 2014

See weather overviewHow to use our weather pages